Find Starlink 34376

NORAD ID: 64300 Int'l Des: 2025-123 Owner: SPXS Country: US Constellation: starlink operational
LEOCIRCULAR

Live-Position

3D-Globus wird geladen...

Über Starlink 34376

Beschreibung wird geladen...

Nächste Überflüge

Passes for default location (London). Set your location on the main map for personalized predictions.

Höhenverlauf

Loading altitude history...

Zweizeiliger Elementsatz

1 64300U 25123K 26106.39881594 .00003219 00000-0 27744-3 0 9990
2 64300 69.9998 99.5166 0003538 270.2722 89.8031 14.98334777 47263
Epoch: 16. Apr. 2026 • Age: 25 hours

Aktueller Status

Höhe 587.5 km
Geschwindigkeit 7.57 km/s
Subsatellitenpunkt -46.46°S, 64.12°E
Startdatum 8. Juni 2025
Alter 0.8 years
Typ internet

Technische Details

Klassifizierung Payload
Masse 575.00 kg
Trockenmasse 530.00 kg
Gesamtmasse 575.00 kg
Länge 0.30 m
Durchmesser 4.10 m
Spannweite 29.00 m
Form Box + pan
Hersteller SPXS
Bus-Typ Starlink V2MO
Phasenstatus In Orbit
Besitzer/Staat SPXS/US

Most Searched